When you browse on this site, cookies collect data to enhance your experience and personalize the content and advertising you see.
Visit our Privacy Policy to learn more. By continuing to use the site, you agree to this use of cookies and data.
  • In Czech Republic
  • List of Countries
  • For 7 days
  • Water Temperature
  • Satellite Maps
  • Weather Map
  • Weather Widgets
  • user-avatar
    Login

    Hourly Weather Bregenz

    Today, 26 April, Friday

    Time Temperature Precipitation Wind Pressure Humidity
    00:00 +5°C° 0 mm 2 mps 642 mmHg 74%
    01:00 +5°C° 0 mm 2 mps 642 mmHg 77%
    02:00 +4°C° 0 mm 2 mps 642 mmHg 82%
    03:00 +3°C° 0 mm 2 mps 642 mmHg 87%
    04:00 +4°C° 0 mm 1 mps 642 mmHg 92%
    05:00 +3°C° 0.8 mm 2 mps 642 mmHg 92%
    06:00 +3°C° 0.8 mm 2 mps 642 mmHg 92%
    07:00 0°C° 0 mm 3 mps 642 mmHg 92%
    08:00 0°C° 2.6 mm 3 mps 642 mmHg 93%
    09:00 -1°C° 2.6 mm 3 mps 642 mmHg 94%
    10:00 -1°C° 2.6 mm 3 mps 642 mmHg 95%
    11:00 -1°C° 2.2 mm 2 mps 643 mmHg 95%
    12:00 -1°C° 2.2 mm 2 mps 643 mmHg 94%
    13:00 +1°C° 2.2 mm 2 mps 644 mmHg 94%
    14:00 +1°C° 0.9 mm 2 mps 644 mmHg 93%
    15:00 +1°C° 0.9 mm 2 mps 644 mmHg 93%
    16:00 +1°C° 0.9 mm 2 mps 644 mmHg 92%
    17:00 +1°C° 0.1 mm 2 mps 644 mmHg 92%
    18:00 +1°C° 0.1 mm 2 mps 644 mmHg 92%
    19:00 -1°C° 0.1 mm 2 mps 644 mmHg 92%
    20:00 -1°C° 0 mm 2 mps 645 mmHg 91%
    21:00 -2°C° 0 mm 2 mps 645 mmHg 90%
    22:00 -2°C° 0 mm 2 mps 646 mmHg 89%
    23:00 -2°C° 0 mm 2 mps 646 mmHg 88%

    Tomorrow, 27 April, Saturday

    Time Temperature Precipitation Wind Pressure Humidity
    00:00 -3°C° 0 mm 2 mps 646 mmHg 87%
    01:00 -3°C° 0 mm 2 mps 646 mmHg 86%
    02:00 -3°C° 0 mm 2 mps 646 mmHg 86%
    03:00 -2°C° 0 mm 2 mps 646 mmHg 86%
    04:00 -2°C° 0 mm 2 mps 646 mmHg 86%
    05:00 -2°C° 0 mm 2 mps 646 mmHg 86%
    06:00 -1°C° 0 mm 2 mps 646 mmHg 85%
    07:00 +1°C° 0 mm 2 mps 647 mmHg 85%
    08:00 +2°C° 0 mm 2 mps 647 mmHg 81%
    09:00 +4°C° 0 mm 2 mps 647 mmHg 78%
    10:00 +5°C° 0 mm 2 mps 647 mmHg 74%
    11:00 +6°C° 0.2 mm 2 mps 647 mmHg 75%
    12:00 +6°C° 0.2 mm 2 mps 647 mmHg 76%
    13:00 +7°C° 0.2 mm 2 mps 647 mmHg 77%
    14:00 +6°C° 0.5 mm 2 mps 646 mmHg 81%
    15:00 +6°C° 0.5 mm 2 mps 646 mmHg 85%
    16:00 +5°C° 0.5 mm 2 mps 646 mmHg 89%
    17:00 +4°C° 0.6 mm 2 mps 646 mmHg 91%
    18:00 +3°C° 0.6 mm 2 mps 646 mmHg 92%
    19:00 +3°C° 0.6 mm 2 mps 646 mmHg 94%
    20:00 +2°C° 1 mm 2 mps 646 mmHg 95%
    21:00 +1°C° 1 mm 2 mps 647 mmHg 96%
    22:00 +1°C° 1 mm 2 mps 647 mmHg 96%
    23:00 -1°C° 0.8 mm 2 mps 647 mmHg 96%

    Day after tomorrow, 28 April, Sunday

    Time Temperature Precipitation Wind Pressure Humidity
    00:00 -1°C° 0.8 mm 2 mps 647 mmHg 96%
    01:00 +1°C° 0.8 mm 1 mps 647 mmHg 96%
    02:00 0°C° 0.3 mm 1 mps 646 mmHg 96%
    03:00 -2°C° 0.3 mm 2 mps 646 mmHg 96%
    04:00 -2°C° 0.3 mm 2 mps 646 mmHg 95%
    05:00 -2°C° 0.3 mm 2 mps 646 mmHg 95%
    06:00 -2°C° 0.3 mm 2 mps 646 mmHg 94%
    07:00 -2°C° 0.3 mm 2 mps 646 mmHg 94%
    08:00 -1°C° 0.2 mm 2 mps 646 mmHg 89%
    09:00 +1°C° 0.2 mm 2 mps 646 mmHg 84%
    10:00 +2°C° 0.2 mm 2 mps 647 mmHg 79%
    11:00 +3°C° 0.2 mm 2 mps 647 mmHg 77%
    12:00 +3°C° 0.2 mm 2 mps 646 mmHg 76%
    13:00 +4°C° 0.2 mm 2 mps 646 mmHg 74%
    14:00 +3°C° 0.5 mm 2 mps 646 mmHg 79%
    15:00 +2°C° 0.5 mm 2 mps 646 mmHg 83%
    16:00 +2°C° 0.5 mm 2 mps 645 mmHg 88%
    17:00 +1°C° 0.5 mm 2 mps 645 mmHg 90%
    18:00 +1°C° 0.5 mm 1 mps 645 mmHg 92%
    19:00 +1°C° 0.5 mm 1 mps 645 mmHg 94%
    20:00 +1°C° 0.5 mm 1 mps 646 mmHg 94%
    21:00 0°C° 0.5 mm 1 mps 646 mmHg 95%
    22:00 0°C° 0.5 mm 1 mps 646 mmHg 95%
    23:00 -1°C° 0.1 mm 1 mps 646 mmHg 95%

    29 April, Monday

    Time Temperature Precipitation Wind Pressure Humidity
    00:00 -1°C° 0.1 mm 1 mps 646 mmHg 94%
    01:00 -2°C° 0.1 mm 1 mps 645 mmHg 94%
    02:00 -1°C° 0.4 mm 1 mps 646 mmHg 94%
    03:00 -1°C° 0.4 mm 1 mps 646 mmHg 94%
    04:00 -2°C° 0.4 mm 0 mps 646 mmHg 93%
    05:00 -2°C° 0.1 mm 0 mps 646 mmHg 93%
    06:00 -1°C° 0.1 mm 0 mps 646 mmHg 93%
    07:00 -1°C° 0.1 mm 0 mps 646 mmHg 93%
    08:00 +1°C° 0.1 mm 1 mps 646 mmHg 91%
    09:00 +2°C° 0.1 mm 1 mps 647 mmHg 89%
    10:00 +3°C° 0.1 mm 1 mps 647 mmHg 87%
    11:00 +3°C° 0.2 mm 1 mps 647 mmHg 84%
    12:00 +4°C° 0.2 mm 1 mps 647 mmHg 81%
    13:00 +5°C° 0.2 mm 1 mps 647 mmHg 78%
    14:00 +5°C° 0.1 mm 1 mps 646 mmHg 77%
    15:00 +5°C° 0.1 mm 1 mps 646 mmHg 76%
    16:00 +5°C° 0.1 mm 1 mps 646 mmHg 76%
    17:00 +5°C° 0.1 mm 1 mps 646 mmHg 80%
    18:00 +4°C° 0.1 mm 1 mps 646 mmHg 84%
    19:00 +3°C° 0.1 mm 1 mps 646 mmHg 88%
    20:00 +2°C° 0 mm 1 mps 646 mmHg 90%
    21:00 0°C° 0 mm 0 mps 646 mmHg 92%
    22:00 -1°C° 0 mm 0 mps 646 mmHg 93%
    23:00 -1°C° 0 mm 0 mps 646 mmHg 94%

    30 April, Tuesday

    Time Temperature Precipitation Wind Pressure Humidity
    00:00 0°C° 0 mm 1 mps 646 mmHg 94%
    01:00 0°C° 0 mm 1 mps 646 mmHg 95%
    02:00 0°C° 0 mm 1 mps 646 mmHg 95%
    03:00 0°C° 0 mm 1 mps 645 mmHg 95%
    04:00 0°C° 0 mm 1 mps 645 mmHg 96%
    05:00 0°C° 0 mm 0 mps 645 mmHg 95%
    06:00 0°C° 0 mm 0 mps 645 mmHg 94%
    07:00 +1°C° 0 mm 0 mps 645 mmHg 93%
    08:00 +3°C° 0.1 mm 1 mps 645 mmHg 90%
    09:00 +4°C° 0.1 mm 1 mps 645 mmHg 88%
    10:00 +5°C° 0.1 mm 1 mps 645 mmHg 85%
    11:00 +5°C° 0.1 mm 1 mps 645 mmHg 84%
    12:00 +4°C° 0.1 mm 2 mps 645 mmHg 83%
    13:00 +5°C° 0.1 mm 2 mps 645 mmHg 82%
    14:00 +4°C° 0.1 mm 2 mps 645 mmHg 84%
    15:00 +4°C° 0.1 mm 2 mps 645 mmHg 85%
    16:00 +4°C° 0.1 mm 2 mps 645 mmHg 87%
    17:00 +5°C° 0 mm 1 mps 645 mmHg 89%
    18:00 +5°C° 0 mm 1 mps 645 mmHg 91%
    19:00 +4°C° 0 mm 1 mps 645 mmHg 93%
    20:00 +4°C° 0.1 mm 1 mps 645 mmHg 94%
    21:00 +3°C° 0.1 mm 1 mps 646 mmHg 94%
    22:00 +3°C° 0.1 mm 1 mps 646 mmHg 94%
    23:00 +3°C° 0 mm 1 mps 646 mmHg 94%

    1 May, Wednesday

    Time Temperature Precipitation Wind Pressure Humidity
    00:00 +2°C° 0 mm 1 mps 646 mmHg 94%
    01:00 +2°C° 0 mm 1 mps 646 mmHg 94%
    02:00 +2°C° 0 mm 1 mps 645 mmHg 93%
    03:00 +2°C° 0 mm 1 mps 645 mmHg 92%
    04:00 +2°C° 0 mm 1 mps 645 mmHg 91%
    05:00 +2°C° 0 mm 1 mps 645 mmHg 90%
    06:00 +2°C° 0 mm 0 mps 645 mmHg 89%
    07:00 +2°C° 0 mm 0 mps 645 mmHg 87%
    08:00 +4°C° 0 mm 0 mps 645 mmHg 85%
    09:00 +6°C° 0 mm 1 mps 646 mmHg 82%
    10:00 +7°C° 0 mm 1 mps 646 mmHg 80%
    11:00 +8°C° 0 mm 1 mps 646 mmHg 77%
    12:00 +9°C° 0 mm 1 mps 646 mmHg 75%
    13:00 +9°C° 0 mm 1 mps 646 mmHg 72%
    14:00 +9°C° 0 mm 1 mps 646 mmHg 72%
    15:00 +10°C° 0 mm 1 mps 646 mmHg 72%
    16:00 +10°C° 0 mm 1 mps 646 mmHg 72%
    17:00 +9°C° 0 mm 1 mps 645 mmHg 77%
    18:00 +8°C° 0 mm 1 mps 645 mmHg 82%
    19:00 +6°C° 0 mm 1 mps 645 mmHg 87%
    20:00 +5°C° 0 mm 1 mps 645 mmHg 89%
    21:00 +4°C° 0 mm 1 mps 645 mmHg 91%
    22:00 +3°C° 0 mm 1 mps 645 mmHg 93%
    23:00 +1°C° 0 mm 2 mps 645 mmHg 93%
    Show more